This is the latest recevied weather packets stored in our database for station/object NO4D. If no packets are shown the sender has not sent any weather packets the latest 1 day(s).
| Time | Temp. | Humidity | Pressure | Rain* | Wind** | Luminosity | Snow |
|---|---|---|---|---|---|---|---|
| 1778065173 | 17.78° C | 82% | 1013.8 hPa | 0 mm | 0.45 m/s, 202° | 9 W/m² | - |
| 1778064870 | 17.78° C | 82% | 1013.7 hPa | 0 mm | 2.24 m/s, 204° | 5 W/m² | - |
| 1778064567 | 17.22° C | 83% | 1013.9 hPa | 0 mm | 2.24 m/s, 204° | 5 W/m² | - |
| 1778064265 | 17.22° C | 83% | 1013.7 hPa | 0 mm | 0 m/s | 4 W/m² | - |
| 1778063963 | 17.22° C | 83% | 1013.5 hPa | 0 mm | 1.79 m/s, 219° | 1 W/m² | - |
| 1778063660 | 17.22° C | 83% | 1013.9 hPa | 0 mm | 0.89 m/s, 215° | 0 W/m² | - |
| 1778063357 | 17.22° C | 84% | 1013.4 hPa | 0 mm | 1.34 m/s, 240° | 0 W/m² | - |
| 1778063055 | 17.22° C | 84% | 1012.9 hPa | 0 mm | 0.45 m/s, 193° | 0 W/m² | - |
| 1778062752 | 17.22° C | 84% | 1013.6 hPa | 0 mm | 2.24 m/s, 192° | 0 W/m² | - |
| 1778062448 | 17.22° C | 84% | 1013 hPa | 0 mm | 2.24 m/s, 208° | 0 W/m² | - |
| 1778062146 | 17.22° C | 84% | 1013.1 hPa | 0 mm | 0.45 m/s, 179° | 0 W/m² | - |
| 1778061844 | 17.22° C | 84% | 1013.1 hPa | 0 mm | 0.45 m/s, 185° | 0 W/m² | - |
| 1778061542 | 17.22° C | 84% | 1013.2 hPa | 0 mm | 0.89 m/s, 205° | 0 W/m² | - |
| 1778061240 | 17.22° C | 84% | 1013.3 hPa | 0 mm | 0.45 m/s, 187° | 0 W/m² | - |
| 1778060936 | 17.22° C | 84% | 1013.4 hPa | 0 mm | 0.89 m/s, 212° | 0 W/m² | - |
| 1778060635 | 17.22° C | 84% | 1013.5 hPa | 0 mm | 0.45 m/s, 193° | 0 W/m² | - |
| 1778060332 | 17.22° C | 84% | 1013.5 hPa | 0 mm | 0.89 m/s, 172° | 0 W/m² | - |
| 1778060030 | 17.22° C | 84% | 1013.6 hPa | 0 mm | 0 m/s | 0 W/m² | - |
| 1778059727 | 17.22° C | 84% | 1013.6 hPa | 0 mm | 0.45 m/s, 187° | 0 W/m² | - |
| 1778059425 | 17.22° C | 84% | 1013.8 hPa | 0 mm | 0 m/s | 0 W/m² | - |
| 1778059121 | 17.22° C | 84% | 1013.6 hPa | 0 mm | 0.45 m/s, 158° | 0 W/m² | - |
| 1778058819 | 17.22° C | 84% | 1013.6 hPa | 0 mm | 0.45 m/s, 157° | 0 W/m² | - |
| 1778058516 | 17.22° C | 84% | 1013.2 hPa | 0 mm | 0 m/s | 0 W/m² | - |
| 1778058214 | 17.22° C | 83% | 1013.3 hPa | 0 mm | 0.45 m/s, 183° | 0 W/m² | - |
| 1778057910 | 17.78° C | 82% | 1013.5 hPa | 0 mm | 0.45 m/s, 174° | 0 W/m² | - |
* Rain latest hour (hover to see other rain measurements)
** Current wind speed in m/s (hover to see current wind gust speed)